Weather Roundup
Issued by NWS

Home | Current Version | Previous Version | Graphics & Text | Print | Product List | Glossary Off
Versions: 1 2 3 4 5 6 7 8 9 10 11 12 13 14 15 16 17 18 19 20 21 22 23 24 25 26 27 28 29 30 31 32 33 34 35 36 37 38 39 40 41 42 43 44 45 46 47 48 49 50

000
NZUS93 KARX 211610
HRRWXR

CURRENT HOURLY OBSERVATIONS ACROSS
MUCH OF THE UPPER MISSISSIPPI VALLEY
NATIONAL WEATHER SERVICE LA CROSSE WI
1100 AM CDT TUE OCT 21 2014


...SOUTHEAST MINNESOTA...


CITY           SKY/WX    TMP DP  RH WIND       PRES   REMARKS
ROCHESTER      SUNNY     50  41  71 SE13      30.22R
ROCHESTER/MAYO PTSUNNY   48  39  71 E8        30.21S
WINONA         SUNNY     48  41  76 E8        30.24S
AUSTIN         SUNNY     52  43  71 SE9       30.19S
ALBERT LEA     SUNNY     54  43  66 SE9       30.18S
DODGE CENTER   SUNNY     52  41  66 SE12G17   30.19F
PRESTON        MOSUNNY   46  39  76 SE10      30.21F
OWATONNA       SUNNY     52  39  62 E10G16    30.18S
FARIBAULT      SUNNY     52  41  66 E13       30.19S
$$

...ELSEWHERE IN MINNESOTA...


CITY           SKY/WX    TMP DP  RH WIND       PRES   REMARKS
MINNEAPOLIS    SUNNY     48  37  65 SE17      30.20F
INTNL FALLS    MOSUNNY   46  36  68 SE14G21   30.18F
DULUTH         CLOUDY    42  34  73 E14       30.24R
RED WING       SUNNY     50  37  62 SE8       30.22S
REDWOOD FALLS  SUNNY     53  41  63 SE12      30.12F
MANKATO        SUNNY     52  39  62 SE12      30.17S
WORTHINGTON    SUNNY     59  41  51 SE10      30.12S
FAIRMONT       SUNNY     54  39  58 SE8       30.15F
$$

...SOUTHWEST WISCONSIN...


CITY           SKY/WX    TMP DP  RH WIND       PRES   REMARKS
LA CROSSE      SUNNY     49  38  65 E7        30.24R
PRAIRIE DU CHI SUNNY     48  37  65 CALM      30.23S
BOSCOBEL       SUNNY     50  38  63 E5        30.24R
LONE ROCK      MOSUNNY   51  37  58 NE8       30.24R
PLATTEVILLE    SUNNY     49  40  72 N9        30.22S
FORT MC COY    PTSUNNY   46  36  67 E8        30.25S
CAMP DOUGLAS   PTSUNNY   46  39  76 E5        30.24R
VIROQUA        FAIR      48  37  65 E5        30.23R
WIS DELLS      CLOUDY    45  35  69 NE8       30.24R
$$

...ELSEWHERE IN WISCONSIN...


CITY           SKY/WX    TMP DP  RH WIND       PRES   REMARKS
MILWAUKEE      CLOUDY    48  39  71 N10       30.20R
MADISON        CLOUDY    47  37  68 NE12      30.23R
GREEN BAY      CLOUDY    46  36  68 N14       30.24R
EAU CLAIRE     PTSUNNY   46  36  68 E7        30.24R
BLACK RVR FLS  PTSUNNY   47  35  61 E5        30.24S
MEDFORD        CLOUDY    43  35  74 NE8       30.24R
WAUSAU         CLOUDY    43  35  73 E8        30.24R
WIS RAPIDS     CLOUDY    46  35  65 E8        30.26R
MARSHFIELD     CLOUDY    47  37  68 E7        30.23R
RICE LAKE      PTSUNNY   46  34  63 E7        30.25S
$$

...NORTHEAST IOWA...


CITY           SKY/WX    TMP DP  RH WIND       PRES   REMARKS
DECORAH        SUNNY     48  39  71 VRB6      30.21S
MASON CITY     SUNNY     53  42  66 SE10      30.20S
CHARLES CITY   SUNNY     52  41  66 VRB7G14   30.20S
OELWEIN        SUNNY     52  39  62 E10       30.21S
$$

...ELSEWHERE IN IOWA...


CITY           SKY/WX    TMP DP  RH WIND       PRES   REMARKS
DES MOINES     SUNNY     57  44  62 E7        30.16S
IOWA CITY      SUNNY     55  43  63 NE7       30.21S
FORT DODGE     SUNNY     55  46  71 SE6       30.16F
$$

...NORTHERN ILLINOIS...


CITY           SKY/WX    TMP DP  RH WIND       PRES   REMARKS
CHICAGO-OHARE  PTSUNNY   50  40  68 N15       30.17R
CHICAGO-MIDWAY CLOUDY    51  42  71 N15       30.16R
MOLINE         SUNNY     54  41  61 E8        30.20R
ROCKFORD       PTSUNNY   49  37  63 NE14      30.23R
PEORIA         MOSUNNY   56  42  59 NE9       30.17S
$$

NOTE: "FAIR" INDICATES FEW OR NO CLOUDS BELOW 12,000 FEET WITH NO
SIGNIFICANT WEATHER AND/OR OBSTRUCTIONS TO VISIBILITY. WIND
SPEEDS ARE IN MILES-PER-HOUR.



USA.gov is the U.S. government's official web portal to all federal, state and local government web resources and services.